Terminal Aerodrome Forecast
Issued by NWS Duluth, MN

Home | Current Version | Previous Version | Text Only | Print | Product List | Glossary On
Versions: 1 2 3 4 5 6 7 8 9 10 11 12 13 14 15 16 17 18 19
000
FTUS43 KDLH 201100
TAFDLH
TAF
KDLH 201129Z 2012/2112 33006KT 6SM BR SKC
      TEMPO 2012/2013 3SM BR
     FM201400 36005KT P6SM SKC=

USA.gov is the U.S. government's official web portal to all federal, state and local government web resources and services.